When you browse on this site, cookies collect data to enhance your experience and personalize the content and advertising you see.
Visit our Privacy Policy to learn more. By continuing to use the site, you agree to this use of cookies and data.
  • In United Kingdom
  • List of Countries
  • For 7 days
  • Water Temperature
  • Satellite Maps
  • Weather Map
  • Weather Widgets
  • user-avatar
    Login

    Hourly Weather Gavanoasa

    Today, 20 February, Wednesday

    Time Temperature Precipitation Wind Pressure Humidity
    00:00 +5°C° 0 mm 5 mps 759 mmHg 84%
    01:00 +4°C° 0 mm 4 mps 759 mmHg 86%
    02:00 +4°C° 0 mm 4 mps 759 mmHg 89%
    03:00 +4°C° 0 mm 4 mps 758 mmHg 91%
    04:00 +3°C° 0 mm 4 mps 758 mmHg 93%
    05:00 +3°C° 0 mm 3 mps 758 mmHg 94%
    06:00 +3°C° 0 mm 3 mps 758 mmHg 94%
    07:00 +4°C° 0 mm 2 mps 758 mmHg 94%
    08:00 +4°C° 0 mm 2 mps 758 mmHg 94%
    09:00 +6°C° 0 mm 2 mps 758 mmHg 81%
    10:00 +8°C° 0 mm 2 mps 758 mmHg 68%
    11:00 +10°C° 0 mm 3 mps 757 mmHg 55%
    12:00 +11°C° 0 mm 3 mps 757 mmHg 50%
    13:00 +12°C° 0 mm 3 mps 757 mmHg 45%
    14:00 +13°C° 0 mm 4 mps 757 mmHg 40%
    15:00 +13°C° 0 mm 4 mps 757 mmHg 43%
    16:00 +12°C° 0 mm 4 mps 757 mmHg 46%
    17:00 +12°C° 0 mm 4 mps 758 mmHg 49%
    18:00 +11°C° 0 mm 4 mps 758 mmHg 54%
    19:00 +8°C° 0 mm 4 mps 759 mmHg 59%
    20:00 +7°C° 0 mm 4 mps 759 mmHg 64%
    21:00 +7°C° 0 mm 4 mps 760 mmHg 66%
    22:00 +7°C° 0 mm 4 mps 760 mmHg 68%
    23:00 +7°C° 0 mm 4 mps 761 mmHg 71%

    Tomorrow, 21 February, Thursday

    Time Temperature Precipitation Wind Pressure Humidity
    00:00 +6°C° 0 mm 4 mps 761 mmHg 70%
    01:00 +6°C° 0 mm 4 mps 761 mmHg 70%
    02:00 +5°C° 0 mm 3 mps 762 mmHg 69%
    03:00 +5°C° 0 mm 3 mps 762 mmHg 70%
    04:00 +4°C° 0 mm 3 mps 762 mmHg 72%
    05:00 +5°C° 0 mm 2 mps 762 mmHg 73%
    06:00 +4°C° 0 mm 3 mps 762 mmHg 73%
    07:00 +4°C° 0 mm 3 mps 762 mmHg 74%
    08:00 +4°C° 0 mm 3 mps 763 mmHg 74%
    09:00 +6°C° 0 mm 4 mps 763 mmHg 65%
    10:00 +7°C° 0 mm 5 mps 763 mmHg 56%
    11:00 +8°C° 0 mm 6 mps 763 mmHg 47%
    12:00 +9°C° 0 mm 5 mps 763 mmHg 44%
    13:00 +9°C° 0 mm 5 mps 762 mmHg 42%
    14:00 +10°C° 0 mm 5 mps 762 mmHg 40%
    15:00 +10°C° 0 mm 4 mps 762 mmHg 41%
    16:00 +10°C° 0 mm 4 mps 762 mmHg 42%
    17:00 +10°C° 0 mm 3 mps 761 mmHg 43%
    18:00 +9°C° 0 mm 3 mps 761 mmHg 47%
    19:00 +8°C° 0 mm 2 mps 761 mmHg 51%
    20:00 +8°C° 0 mm 2 mps 762 mmHg 55%
    21:00 +7°C° 0 mm 2 mps 761 mmHg 58%
    22:00 +7°C° 0 mm 2 mps 761 mmHg 60%
    23:00 +5°C° 0 mm 3 mps 761 mmHg 63%

    Day after tomorrow, 22 February, Friday

    Time Temperature Precipitation Wind Pressure Humidity
    00:00 +5°C° 0 mm 3 mps 761 mmHg 63%
    01:00 +5°C° 0 mm 3 mps 760 mmHg 63%
    02:00 +5°C° 0 mm 3 mps 760 mmHg 63%
    03:00 +4°C° 0 mm 3 mps 759 mmHg 64%
    04:00 +4°C° 0 mm 3 mps 758 mmHg 64%
    05:00 +5°C° 0 mm 2 mps 757 mmHg 65%
    06:00 +5°C° 0.2 mm 2 mps 757 mmHg 68%
    07:00 +5°C° 0.2 mm 2 mps 757 mmHg 71%
    08:00 +5°C° 0.2 mm 2 mps 757 mmHg 74%
    09:00 +5°C° 0.4 mm 3 mps 756 mmHg 74%
    10:00 +5°C° 0.4 mm 3 mps 756 mmHg 74%
    11:00 +7°C° 0.4 mm 3 mps 756 mmHg 74%
    12:00 +6°C° 0.4 mm 4 mps 756 mmHg 74%
    13:00 +6°C° 0.4 mm 5 mps 756 mmHg 73%
    14:00 +7°C° 0.4 mm 5 mps 756 mmHg 72%
    15:00 +3°C° 0.4 mm 7 mps 757 mmHg 72%
    16:00 0°C° 0.4 mm 9 mps 758 mmHg 71%
    17:00 -3°C° 0.4 mm 11 mps 759 mmHg 71%
    18:00 -4°C° 0 mm 11 mps 761 mmHg 66%
    19:00 -6°C° 0 mm 11 mps 762 mmHg 60%
    20:00 -7°C° 0 mm 11 mps 764 mmHg 55%
    21:00 -8°C° 0 mm 11 mps 764 mmHg 53%
    22:00 -8°C° 0 mm 10 mps 765 mmHg 52%
    23:00 -9°C° 0 mm 10 mps 766 mmHg 50%

    23 February, Saturday

    Time Temperature Precipitation Wind Pressure Humidity
    00:00 -9°C° 0 mm 10 mps 766 mmHg 49%
    01:00 -9°C° 0 mm 9 mps 766 mmHg 48%
    02:00 -9°C° 0 mm 9 mps 766 mmHg 47%
    03:00 -10°C° 0 mm 9 mps 767 mmHg 46%
    04:00 -10°C° 0 mm 8 mps 767 mmHg 46%
    05:00 -10°C° 0 mm 8 mps 767 mmHg 45%
    06:00 -10°C° 0 mm 8 mps 767 mmHg 44%
    07:00 -8°C° 0 mm 8 mps 768 mmHg 43%
    08:00 -8°C° 0 mm 8 mps 768 mmHg 43%
    09:00 -8°C° 0 mm 8 mps 768 mmHg 42%
    10:00 -7°C° 0 mm 8 mps 768 mmHg 41%
    11:00 -7°C° 0 mm 8 mps 769 mmHg 39%
    12:00 -6°C° 0 mm 8 mps 769 mmHg 39%
    13:00 -6°C° 0 mm 8 mps 768 mmHg 39%
    14:00 -6°C° 0 mm 8 mps 768 mmHg 38%
    15:00 -6°C° 0 mm 7 mps 768 mmHg 40%
    16:00 -6°C° 0 mm 7 mps 768 mmHg 41%
    17:00 -7°C° 0 mm 7 mps 768 mmHg 42%
    18:00 -6°C° 0 mm 6 mps 768 mmHg 45%
    19:00 -6°C° 0 mm 6 mps 769 mmHg 48%
    20:00 -6°C° 0 mm 6 mps 769 mmHg 50%
    21:00 -6°C° 0 mm 5 mps 769 mmHg 51%
    22:00 -7°C° 0 mm 5 mps 769 mmHg 52%
    23:00 -7°C° 0 mm 5 mps 769 mmHg 54%

    24 February, Sunday

    Time Temperature Precipitation Wind Pressure Humidity
    00:00 -7°C° 0 mm 5 mps 768 mmHg 54%
    01:00 -7°C° 0 mm 5 mps 768 mmHg 55%
    02:00 -7°C° 0 mm 5 mps 768 mmHg 56%
    03:00 -7°C° 0 mm 5 mps 768 mmHg 56%
    04:00 -7°C° 0 mm 5 mps 767 mmHg 56%
    05:00 -7°C° 0 mm 5 mps 767 mmHg 56%
    06:00 -7°C° 0 mm 5 mps 767 mmHg 55%
    07:00 -8°C° 0 mm 6 mps 768 mmHg 55%
    08:00 -8°C° 0 mm 6 mps 768 mmHg 54%
    09:00 -6°C° 0 mm 6 mps 768 mmHg 50%
    10:00 -7°C° 0 mm 7 mps 768 mmHg 46%
    11:00 -6°C° 0 mm 7 mps 768 mmHg 41%
    12:00 -4°C° 0 mm 7 mps 768 mmHg 40%
    13:00 -4°C° 0 mm 7 mps 767 mmHg 38%
    14:00 -3°C° 0 mm 7 mps 767 mmHg 37%
    15:00 -4°C° 0 mm 7 mps 767 mmHg 38%
    16:00 -4°C° 0 mm 6 mps 767 mmHg 39%
    17:00 -4°C° 0 mm 6 mps 767 mmHg 41%
    18:00 -5°C° 0 mm 6 mps 767 mmHg 43%
    19:00 -5°C° 0 mm 6 mps 768 mmHg 46%
    20:00 -6°C° 0 mm 5 mps 768 mmHg 49%
    21:00 -6°C° 0 mm 5 mps 768 mmHg 50%
    22:00 -6°C° 0 mm 5 mps 768 mmHg 52%
    23:00 -7°C° 0 mm 5 mps 768 mmHg 54%

    25 February, Monday

    Time Temperature Precipitation Wind Pressure Humidity
    00:00 -7°C° 0 mm 5 mps 768 mmHg 54%
    01:00 -7°C° 0 mm 5 mps 768 mmHg 54%
    02:00 -7°C° 0 mm 5 mps 767 mmHg 54%
    03:00 -7°C° 0 mm 5 mps 767 mmHg 53%
    04:00 -8°C° 0 mm 6 mps 767 mmHg 51%
    05:00 -8°C° 0 mm 6 mps 767 mmHg 49%
    06:00 -8°C° 0 mm 6 mps 767 mmHg 48%
    07:00 -8°C° 0 mm 6 mps 767 mmHg 46%
    08:00 -8°C° 0 mm 7 mps 767 mmHg 44%
    09:00 -7°C° 0 mm 7 mps 766 mmHg 39%
    10:00 -6°C° 0 mm 7 mps 766 mmHg 35%
    11:00 -4°C° 0 mm 7 mps 766 mmHg 30%
    12:00 -4°C° 0 mm 7 mps 765 mmHg 31%
    13:00 -3°C° 0 mm 7 mps 764 mmHg 31%
    14:00 -2°C° 0 mm 7 mps 763 mmHg 31%
    15:00 -3°C° 0 mm 6 mps 763 mmHg 38%
    16:00 -2°C° 0 mm 5 mps 762 mmHg 45%
    17:00 -2°C° 0 mm 4 mps 761 mmHg 51%
    18:00 -2°C° 0 mm 3 mps 761 mmHg 56%
    19:00 -4°C° 0 mm 3 mps 761 mmHg 61%
    20:00 -3°C° 0 mm 2 mps 761 mmHg 66%
    21:00 -4°C° 0 mm 2 mps 760 mmHg 63%
    22:00 -4°C° 0 mm 2 mps 760 mmHg 61%
    23:00 -5°C° 0 mm 2 mps 760 mmHg 58%
    Show more